WetterOnline ( https://www.wetteronline.de )

Wetter aktuell Neustrelitz

Aktuelles Wetter: Feldberg (115m)

6-stündlich | Neueste Meldungen
Ortszeit Temperatur Wetter
So, 17.11. 1:00 1.4° C wolkig
Sa, 16.11. 19:00 4.8° C bewölkt
Sa, 16.11. 13:00 7.3° C Sprühregen
Sa, 16.11. 7:00 7.3° C wolkig
Sa, 16.11. 1:00 8.2° C bedeckt
Fr, 15.11. 19:00 7.5° C bedeckt
Fr, 15.11. 13:00 6.3° C bedeckt
Fr, 15.11. 7:00 3.5° C bedeckt
Ortszeit Temperatur Wetter
So, 17.11. 6:30 -1.8° C Nebel
So, 17.11. 6:20 -1.8° C Nebel
So, 17.11. 6:10 -1.7° C Nebel
So, 17.11. 6:00 -1.0° C Nebel
So, 17.11. 5:50 -1.0° C Nebel
So, 17.11. 5:40 -0.8° C Nebel
So, 17.11. 5:30 -1.0° C Nebel
So, 17.11. 5:00 -0.8° C Nebel
So, 17.11. 4:30 0.4° C fast wolkenlos
So, 17.11. 4:00 -0.1° C leicht bewölkt
So, 17.11. 3:30 0.4° C Dunst
So, 17.11. 3:00 0.9° C bewölkt
Ortszeit Relative Feuchte Sichtweite
So, 17.11. 1:00 100% 2.7 km
Sa, 16.11. 19:00 89% 15 km
Sa, 16.11. 13:00 96% 10 km
Sa, 16.11. 7:00 98% 3.7 km
Sa, 16.11. 1:00 95% 5.0 km
Fr, 15.11. 19:00 93% 9 km
Fr, 15.11. 13:00 92% 11 km
Fr, 15.11. 7:00 91% 9 km
Ortszeit Relative Feuchte Sichtweite
So, 17.11. 6:30 100% 100 m
So, 17.11. 6:20 100% -
So, 17.11. 6:10 100% -
So, 17.11. 6:00 100% 0.3 km
So, 17.11. 5:50 100% -
So, 17.11. 5:40 100% -
So, 17.11. 5:30 100% 0.7 km
So, 17.11. 5:00 100% 100 m
So, 17.11. 4:30 100% 2.5 km
So, 17.11. 4:00 100% 1.6 km
So, 17.11. 3:30 100% 1.0 km
So, 17.11. 3:00 100% 1.9 km
Ortszeit Niederschlagsmenge Niederschlagsart
So, 17.11. 1:00 0.0 l/m2 in 6 Std. -
Sa, 16.11. 19:00 1 l/m2 in 12 Std. Regen
Sa, 16.11. 13:00 1 l/m2 in 6 Std. Regen
Sa, 16.11. 7:00 0.0 l/m2 in 12 Std. -
Sa, 16.11. 1:00 0.0 l/m2 in 6 Std. -
Fr, 15.11. 19:00 0.0 l/m2 in 12 Std. -
Fr, 15.11. 13:00 0.0 l/m2 in 6 Std. -
Fr, 15.11. 7:00 0.0 l/m2 in 12 Std. -
Ortszeit Niederschlagsmenge Niederschlagsart
So, 17.11. 6:30 0.0 l/m2 in 1 Std. -
So, 17.11. 6:20 keine Meldung -
So, 17.11. 6:10 keine Meldung -
So, 17.11. 6:00 0.0 l/m2 in 1 Std. -
So, 17.11. 5:50 keine Meldung -
So, 17.11. 5:40 keine Meldung -
So, 17.11. 5:30 0.0 l/m2 in 1 Std. -
So, 17.11. 5:00 0.0 l/m2 in 1 Std. -
So, 17.11. 4:30 0.0 l/m2 in 1 Std. -
So, 17.11. 4:00 0.0 l/m2 in 1 Std. -
So, 17.11. 3:30 0.0 l/m2 in 1 Std. -
So, 17.11. 3:00 0.0 l/m2 in 1 Std. -
Ortszeit Stärke Spitze Richtung
km/h Bft. km/h Grad Sektor
So, 17.11. 1:00 6 1 31 160° S
Sa, 16.11. 19:00 24 4 46 220° SW
Sa, 16.11. 13:00 25 4 40 210° SW
Sa, 16.11. 7:00 11 2 22 100° O
Sa, 16.11. 1:00 11 2 25 100° O
Fr, 15.11. 19:00 14 3 50 90° O
Fr, 15.11. 13:00 26 4 50 100° O
Fr, 15.11. 7:00 31 5 52 100° O
Ortszeit Stärke Spitze Richtung
km/h Bft. km/h Grad Sektor
So, 17.11. 6:30 2 1 4 120° SO
So, 17.11. 6:20 2 1 - 120° SO
So, 17.11. 6:10 2 1 - 110° O
So, 17.11. 6:00 0 0 7 - -
So, 17.11. 5:50 2 1 - 340° N
So, 17.11. 5:40 4 1 - 150° SO
So, 17.11. 5:30 4 1 7 120° SO
So, 17.11. 5:00 0 0 11 - -
So, 17.11. 4:30 6 1 9 130° SO
So, 17.11. 4:00 2 1 11 190° S
So, 17.11. 3:30 4 1 11 160° S
So, 17.11. 3:00 11 2 18 170° S
Ortszeit Untergrenze Bedeckung Gattung
total tief tief mittel hoch
So, 17.11. 1:00 60 m 8/8 1/8 - - -
Sa, 16.11. 19:00 450 m 7/8 7/8 - - -
Sa, 16.11. 13:00 150 m 7/8 7/8 - - -
Sa, 16.11. 7:00 150 m 8/8 3/8 - - -
Sa, 16.11. 1:00 210 m 8/8 8/8 - - -
Fr, 15.11. 19:00 240 m 8/8 8/8 - - -
Fr, 15.11. 13:00 210 m 8/8 8/8 - - -
Fr, 15.11. 7:00 240 m 8/8 8/8 - - -
Ortszeit Bedeckungsgrad in Achtel und Wolkenuntergrenze
So, 17.11. 6:30 4(<30m)
So, 17.11. 6:20 4(<30m)
So, 17.11. 6:10 1(<30m)
So, 17.11. 6:00 1(<30m)
So, 17.11. 5:50 keine Wolken
So, 17.11. 5:40 1(9000m)
So, 17.11. 5:30 1(9000m)
So, 17.11. 5:00 keine Wolken
So, 17.11. 4:30 1(8700m)
So, 17.11. 4:00 5(8700m) 5(9000m)
So, 17.11. 3:30 1(30m) 7(8700m) 8(9000m)
So, 17.11. 3:00 6(30m) 8(9000m)
Ortszeit Luftdruck NN (hPa) Tendenz (hPa in 3 Std.)
So, 17.11. 1:00 1015 + 1,4
Sa, 16.11. 19:00 1012 + 3,2
Sa, 16.11. 13:00 1004 + 1,0
Sa, 16.11. 7:00 1003 - 1,2
Sa, 16.11. 1:00 1005 - 0,9
Fr, 15.11. 19:00 1007 - 0,4
Fr, 15.11. 13:00 1007 - 1,7
Fr, 15.11. 7:00 1010 - 0,9
Ortszeit Luftdruck NN (hPa) Tendenz (hPa in 3 Std.)
So, 17.11. 6:30 1017 + 0,8
So, 17.11. 6:20 1017 keine Meldung
So, 17.11. 6:10 1017 keine Meldung
So, 17.11. 6:00 1017 + 0,2
So, 17.11. 5:50 1017 keine Meldung
So, 17.11. 5:40 1017 keine Meldung
So, 17.11. 5:30 1017 + 0,7
So, 17.11. 5:00 1017 + 1,0
So, 17.11. 4:30 1016 + 1,0
So, 17.11. 4:00 1016 + 0,8
So, 17.11. 3:30 1016 + 1,4
So, 17.11. 3:00 1016 + 1,3
Ortszeit Schneehöhe (cm)
So, 17.11. 1:00 0
Sa, 16.11. 19:00 0
Sa, 16.11. 13:00 0
Sa, 16.11. 7:00 0
Sa, 16.11. 1:00 0
Fr, 15.11. 19:00 0
Fr, 15.11. 13:00 0
Fr, 15.11. 7:00 0
Ortszeit Schneehöhe (cm)
So, 17.11. 6:30 0
So, 17.11. 6:20 0
So, 17.11. 6:10 0
So, 17.11. 6:00 0
So, 17.11. 5:50 0
So, 17.11. 5:40 0
So, 17.11. 5:30 0
So, 17.11. 5:00 0
So, 17.11. 4:30 0
So, 17.11. 4:00 0
So, 17.11. 3:30 0
So, 17.11. 3:00 0
Link zu dieser Seite / Seite empfehlen

Das Wetter in ...